This is the latest recevied weather packets stored in our database for station/object CRYC. If no packets are shown the sender has not sent any weather packets the latest 10 day(s).
| Time | Temp. | Humidity | Pressure | Rain* | Wind** | Luminosity | Snow |
|---|---|---|---|---|---|---|---|
| 1777962142 | 16.11° C | - | - | 0 mm | 2.24 m/s, 273° | - | - |
| 1777961537 | 16.11° C | - | - | 0 mm | 1.79 m/s, 243° | - | - |
| 1777960920 | 16.11° C | - | - | 0 mm | 0 m/s | - | - |
| 1777960309 | 16.11° C | - | - | 0 mm | 1.34 m/s, 120° | - | - |
| 1777959703 | 16.11° C | - | - | 0 mm | 0.89 m/s, 240° | - | - |
| 1777959096 | 15.56° C | - | - | 0 mm | 0.89 m/s, 198° | - | - |
| 1777958484 | 15.56° C | - | - | 0 mm | 0.89 m/s, 266° | - | - |
| 1777957916 | 15.56° C | - | - | 0 mm | 0.45 m/s, 107° | - | - |
| 1777957874 | 15.56° C | - | - | 0 mm | 0.45 m/s, 107° | - | - |
| 1777957269 | 15.56° C | - | - | 0 mm | 0 m/s | - | - |
| 1777956665 | 15.56° C | - | - | 0 mm | 0.45 m/s, 172° | - | - |
| 1777956063 | 16.11° C | - | - | 0 mm | 1.34 m/s, 238° | - | - |
| 1777955452 | 16.11° C | - | - | 0 mm | 1.34 m/s, 176° | - | - |
| 1777954841 | 16.11° C | - | - | 0 mm | 1.34 m/s, 274° | - | - |
| 1777954231 | 16.11° C | - | - | 0 mm | 1.79 m/s, 219° | - | - |
| 1777953016 | 16.11° C | - | - | 0 mm | 0.89 m/s, 264° | - | - |
| 1777952405 | 16.11° C | - | - | 0 mm | 0 m/s | - | - |
| 1777951797 | 16.11° C | - | - | 0 mm | 0.45 m/s, 145° | - | - |
| 1777951191 | 16.11° C | - | - | 0 mm | 0.45 m/s, 256° | - | - |
| 1777950578 | 16.11° C | - | - | 0 mm | 0.45 m/s, 183° | - | - |
| 1777949973 | 16.67° C | - | - | 0 mm | 0.89 m/s, 145° | - | - |
| 1777949366 | 16.67° C | - | - | 0 mm | 1.79 m/s, 194° | - | - |
| 1777948758 | 16.67° C | - | - | 0 mm | 1.34 m/s, 204° | - | - |
| 1777948151 | 16.67° C | - | - | 0 mm | 0.89 m/s, 211° | - | - |
| 1777947542 | 17.22° C | - | - | 0 mm | 1.34 m/s, 165° | - | - |
* Rain latest hour (hover to see other rain measurements)
** Current wind speed in m/s (hover to see current wind gust speed)